This demonstration page uses our WeatherBlox Daily Observations layout. Learn more.

Left ArrowRight Arrow

Hourly Observations for May 13, 2020

Temp ( °F °C ) Dew Point ( °F °C ) Humidity (%) Winds ( mph kmh ) Pressure ( in mb ) Visibility ( mi km ) Precip ( " mm )
12:52 am 00:52 Clear 48 8.9 34 1.1 58 58 SSE 10 17 30.07 1018 10 16 0.00 0.00
1:52 am 01:52 Mostly Clear 47 8.3 35 1.7 63 63 SSE 8 13 30.08 1019 10 16 0.00 0.00
2:52 am 02:52 Cloudy 48 8.9 37 2.8 66 66 SSE 7 11 30.06 1018 10 16 0.00 0.00
3:52 am 03:52 Cloudy 49 9.4 39 3.9 69 69 SSE 7 11 30.04 1017 10 16 0.00 0.00
4:52 am 04:52 Cloudy 50 10 41 5 71 71 SSE 10 17 30.01 1016 10 16 0.00 0.00
5:52 am 05:52 Cloudy 50 10 41 5 71 71 SSE 9 15 30.03 1017 10 16 0.00 0.00
6:29 am 06:29 Cloudy 50 10 42 5.6 74 74 SE 12 19 30.05 1018 10 16 0.00 0.00
6:52 am 06:52 Cloudy 50 10 42 5.6 74 74 SE 12 19 30.03 1017 10 16 0.00 0.00
7:52 am 07:52 Cloudy 51 10.6 44 6.7 77 77 SE 13 20 30.02 1017 10 16 0.00 0.00
8:52 am 08:52 Cloudy 51 10.6 45 7.2 80 80 SE 18 30 29.98 1015 10 16 0.00 0.00
9:52 am 09:52 Cloudy 52 11.1 45 7.2 77 77 SSE 20 31 29.98 1015 10 16 0.00 0.00
10:52 am 10:52 Cloudy 53 11.7 46 7.8 77 77 SSE 21 33 29.97 1015 10 16 0.00 0.00
11:52 am 11:52 Cloudy with Drizzle 53 11.7 47 8.3 80 80 SSE 15 24 29.95 1014 4 6 0.00 0.00
12:32 pm 12:32 Cloudy 53 11.7 48 8.9 83 83 SSE 15 24 29.94 1014 10 16 0.00 0.00
12:52 pm 12:52 Cloudy with Drizzle 52 11.1 49 9.4 89 89 SSE 16 26 29.93 1013 3 5 0.00 0.00
1:07 pm 13:07 Cloudy with Light Rain 52 11.1 49 9.4 89 89 SSE 15 24 29.93 1013 3 4 0.00 0.00
1:34 pm 13:34 Cloudy with Light Rain 52 11.1 50 10 93 93 SSE 15 24 29.92 1013 2 3 0.00 0.00
1:52 pm 13:52 Cloudy with Light Rain 52 11.1 51 10.6 97 97 SSE 15 24 29.92 1013 2 3 0.01 0.25
2:05 pm 14:05 Cloudy with Light Rain 52 11.1 51 10.6 97 97 SE 15 24 29.91 1013 2 2 0.01 0.25
2:46 pm 14:46 Cloudy with Light Rain 54 12 52 11 94 94 SSE 16 26 29.88 1012 4 6 0.04 1.02
2:52 pm 14:52 Cloudy with Light Rain 53 11.7 51 10.6 93 93 SE 15 24 29.88 1012 4 6 0.04 1.02
3:52 pm 15:52 Cloudy 54 12.2 52 11.1 93 93 SE 12 19 29.86 1011 10 16 0.00 0.00
4:52 pm 16:52 Cloudy 55 12.8 52 11.1 90 90 SE 10 17 29.83 1010 10 16 0.00 0.00
5:52 pm 17:52 Cloudy with Mist and Fog 55 12.8 53 11.7 93 93 SSE 12 19 29.82 1010 4 6 0.00 0.00
6:52 pm 18:52 Cloudy with Drizzle 55 12.8 53 11.7 93 93 SE 10 17 29.80 1009 4 6 0.00 0.00
7:35 pm 19:35 Cloudy with Drizzle 55 12.8 54 12.2 96 96 SE 10 17 29.80 1009 3 4 0.00 0.00
7:43 pm 19:43 Cloudy with Drizzle 55 12.8 54 12.2 96 96 SE 8 13 29.80 1009 2 3 0.00 0.00
7:52 pm 19:52 Cloudy with Drizzle 55 12.8 54 12.2 96 96 SE 8 13 29.80 1009 2 2 0.01 0.25
8:05 pm 20:05 Cloudy with Drizzle 55 12.8 54 12.2 96 96 SE 7 11 29.80 1009 2 3 0.00 0.00
8:52 pm 20:52 Cloudy with Drizzle 55 12.8 54 12.2 96 96 SE 8 13 29.81 1009 3 4 0.01 0.25
9:52 pm 21:52 Cloudy with Light Rain 55 12.8 54 12.2 96 96 SE 6 9 29.82 1010 3 4 0.03 0.76
10:21 pm 22:21 Cloudy with Light Rain 55 12.8 54 12.2 96 96 SE 7 11 29.82 1010 3 5 0.00 0.00
10:45 pm 22:45 Cloudy with Drizzle 55 12.8 54 12.2 96 96 SE 5 7 29.83 1010 2 3 0.01 0.25
10:52 pm 22:52 Cloudy with Drizzle 55 12.8 54 12.2 96 96 SE 5 7 29.83 1010 2 3 0.01 0.25
11:02 pm 23:02 Cloudy with Drizzle 55 12.8 54 12.2 96 96 ESE 5 7 29.83 1010 2 3 0.00 0.00
11:52 pm 23:52 Cloudy with Drizzle 55 12.8 55 12.8 100 100 SE 5 7 29.84 1010 2 3 0.00 0.00

Powered by AerisWeather